Tracking 25963 objects as of 13-Aug-2022
HD Live streaming from Space Station
objects crossing your sky now

BS-3A (YURI 3A)

Track BS-3A (YURI 3A) now!
BS-3A (YURI 3A) is classified as:


NORAD ID: 20771
Int'l Code: 1990-077A
Perigee: 36,173.0 km
Apogee: 36,242.2 km
Inclination: 15.5 °
Period: 1,457.3 minutes
Semi major axis: 42578 km
RCS: 1.6597 m2 (large)
Launch date: August 28, 1990
Source: Japan (JPN)
Launch site: TANEGASHIMA SPACE CENTER (TNSTA)
aabbcc
Your satellite tracking list
Your tracking list is empty




NASA's NSSDC Master Catalog

Two Line Element Set (TLE):
1 20771U 90077A   22224.22063126 -.00000294  00000-0  00000-0 0  9990
2 20771  15.5059   8.4278 0008125 210.4329 329.1016  0.98813536121694
Source of the keplerian elements: AFSPC